Theta_e
318 323 324 324 322 321 319 317 319 321 321 324 328 329 327 322 321 323 322 317 312 313 319 317 314 314 313 313 312 311 316 317 315 314 311 310 309 309 309 308 308 307 306 305 305 306 307 308 308 309 310 310 309 310 312 313 313 314 314 315 317 318 318 320 320 320 320 320 318 319 322 323 323 324 324 324 324 324 323 324 324 324 324 324 324 323
318 324 324 323 320 317 317 317 318 320 320 322 322 321 322 322 321 320 317 316 314 313 320 320 315 314 312 312 312 311 313 314 314 314 312 312 310 309 309 309 308 307 306 305 304 304 305 306 307 309 310 310 309 310 311 312 313 313 314 315 316 317 317 318 320 320 319 319 320 320 322 322 321 320 322 322 322 322 322 322 323 323 323 323 322 321
320 324 322 319 318 318 317 316 316 318 318 322 324 319 321 322 321 320 317 316 315 313 320 324 318 315 313 313 313 312 312 312 311 312 312 313 312 311 310 309 308 308 309 309 305 302 303 304 306 308 309 309 309 309 309 311 313 313 313 314 315 317 316 316 318 318 318 318 320 320 320 320 319 318 319 320 321 321 321 321 321 321 321 321 319 319
322 325 320 316 318 319 318 315 316 317 317 321 323 319 321 322 320 321 319 316 314 312 318 324 318 314 314 314 314 312 313 313 311 311 311 311 311 311 311 310 310 309 309 309 307 303 301 302 304 306 307 308 308 308 308 310 311 310 311 313 314 315 316 315 316 316 317 317 318 318 318 319 319 318 318 319 319 320 320 320 320 320 320 319 318 318
322 322 315 313 316 319 320 317 317 318 319 322 321 318 319 321 321 320 320 320 318 315 316 320 320 321 322 319 318 318 316 315 312 311 311 310 310 310 310 310 310 310 309 308 308 304 301 301 303 305 307 308 308 308 308 309 310 310 310 312 314 315 315 315 315 316 317 318 317 316 315 314 315 313 314 315 315 317 319 319 318 318 318 318 318 318
320 317 314 315 314 318 322 319 321 322 321 325 323 319 318 320 320 319 320 320 324 326 319 317 323 331 330 323 324 327 325 324 318 315 316 314 311 311 311 310 309 310 309 308 307 305 301 301 302 304 306 307 308 308 308 309 310 309 310 313 314 314 314 314 315 315 317 318 316 316 313 310 309 308 310 315 316 316 316 317 318 316 316 318 318 317
318 314 316 322 318 318 319 318 323 320 318 323 323 319 317 316 317 318 319 319 327 330 317 316 326 328 325 323 326 330 330 330 324 321 321 316 314 314 313 311 309 308 308 308 307 304 302 301 302 304 306 307 307 308 308 308 309 309 310 313 313 313 313 313 313 314 315 317 316 317 317 315 314 312 312 316 318 317 315 316 316 314 315 317 318 316
318 315 316 321 322 320 318 320 322 317 320 327 320 318 319 317 319 320 319 320 325 325 318 321 328 325 323 323 325 326 325 325 323 323 323 318 317 318 316 313 311 309 308 308 307 305 302 301 302 303 305 307 307 307 307 308 309 309 310 311 311 313 313 312 313 313 313 315 316 316 316 317 317 317 316 315 315 315 314 315 314 312 314 316 315 313
317 321 319 318 320 321 320 323 320 315 322 324 315 316 319 319 323 322 322 323 322 322 323 323 321 323 327 324 322 322 323 325 327 328 325 320 320 322 321 318 313 309 307 307 307 305 302 301 302 303 305 307 307 307 307 308 309 309 309 309 310 312 313 312 313 313 313 314 315 315 314 315 313 313 315 314 313 313 313 314 313 311 313 314 313 311
315 318 318 318 320 321 322 319 315 316 320 316 311 316 319 320 322 323 327 327 324 325 328 325 322 323 325 326 326 322 323 329 329 327 323 320 321 323 324 322 317 312 307 306 306 303 301 301 302 303 305 307 307 307 307 307 308 309 308 307 307 309 311 312 312 312 312 311 312 312 312 313 311 310 312 310 309 310 310 312 312 309 312 313 312 311
314 311 312 318 320 319 320 315 312 317 317 313 317 323 323 324 325 326 327 325 327 330 327 325 324 322 324 330 330 323 324 329 327 326 325 325 328 331 329 325 321 315 309 307 305 302 300 301 301 303 305 307 307 307 307 307 307 307 307 306 305 307 309 310 311 310 310 309 310 310 311 313 312 311 311 308 307 308 309 311 310 309 311 312 312 310
315 314 316 318 317 317 320 317 313 313 312 316 329 330 324 327 326 326 328 326 330 331 324 320 320 320 324 329 329 324 324 325 323 326 332 335 337 340 337 329 322 314 309 307 305 303 301 300 301 303 305 307 307 307 306 307 307 306 306 306 304 305 307 308 307 307 307 307 308 309 309 311 312 313 313 312 311 311 311 311 310 309 310 311 309 307
318 320 319 316 313 317 324 323 317 315 314 319 330 328 325 329 327 328 329 327 329 326 318 316 319 320 322 323 324 323 323 323 320 320 326 331 333 334 332 329 323 314 308 306 305 303 302 300 301 302 305 307 306 306 306 306 306 305 305 305 304 303 304 305 305 304 305 305 306 307 308 309 311 313 314 315 315 314 313 312 310 310 311 309 307 303
321 319 316 316 316 318 322 323 321 320 318 319 325 326 328 330 331 336 333 323 323 323 316 314 319 323 323 323 323 320 319 321 320 319 319 320 321 320 318 320 321 315 309 306 304 303 302 300 301 302 304 306 306 306 305 305 305 305 304 304 304 303 302 303 304 303 304 304 305 305 307 309 310 312 313 314 315 314 312 311 311 311 310 309 306 300
321 320 319 318 319 319 318 319 324 324 318 318 322 324 327 330 334 338 335 328 326 326 320 314 319 328 328 327 325 320 320 323 324 323 318 314 314 313 311 311 314 314 310 305 302 302 301 299 300 302 304 306 306 305 305 305 304 304 304 303 303 302 301 303 303 303 303 304 304 304 305 307 309 311 313 313 313 312 311 310 310 310 309 307 304 296
319 323 323 318 317 317 317 319 324 323 319 318 320 323 325 328 329 326 323 324 325 327 325 319 322 327 325 324 322 319 322 325 324 321 318 318 316 313 313 312 310 310 308 304 302 301 300 299 300 302 304 305 306 305 305 304 303 303 303 303 303 302 302 302 303 303 303 304 304 303 304 306 308 310 311 311 310 310 310 309 308 308 307 305 300 293
321 323 319 315 317 316 316 319 320 320 321 319 319 323 322 320 327 328 318 313 316 323 326 324 325 324 321 322 320 317 320 321 319 319 320 321 317 314 318 318 314 311 307 302 301 301 299 299 299 301 303 305 305 305 304 304 303 303 302 302 302 302 302 302 302 302 302 303 303 302 304 306 308 310 310 309 309 308 308 307 307 306 304 301 296 291
323 324 317 314 319 315 310 316 319 316 318 321 323 324 318 315 325 330 325 322 322 326 328 325 324 323 323 324 319 318 322 322 319 319 319 318 317 317 318 317 314 310 306 303 301 300 299 298 299 300 302 304 305 305 304 304 303 302 302 302 301 301 301 301 301 301 301 302 302 302 303 306 308 309 308 307 307 307 306 305 303 302 301 297 292 291
320 321 318 312 316 315 310 316 320 315 313 319 323 321 320 325 327 325 326 331 330 329 330 328 324 321 321 323 320 321 330 333 327 321 319 320 323 323 321 321 320 312 306 304 302 300 299 298 298 299 301 303 304 305 305 304 303 302 301 301 301 300 301 301 301 300 300 302 303 303 304 306 308 307 306 305 305 305 304 303 300 299 297 293 291 290
319 318 321 313 311 315 315 317 323 319 314 315 317 316 319 325 326 324 325 327 329 330 331 331 327 322 322 325 324 322 328 334 330 325 324 328 333 334 331 330 331 323 312 305 302 300 299 297 298 299 300 302 303 304 304 304 303 302 301 300 300 300 300 300 300 300 300 301 302 302 303 304 305 304 304 304 304 304 302 301 299 296 294 292 290 290
319 316 321 317 311 316 320 320 320 320 318 317 318 318 319 319 321 324 323 321 327 333 331 331 329 321 321 326 326 323 324 325 327 328 329 332 334 334 332 330 329 326 318 307 301 300 298 297 297 299 300 301 302 303 303 303 303 301 300 300 300 299 299 299 299 299 300 301 302 302 303 303 302 302 302 302 302 302 300 298 296 293 291 291 290 290
319 319 323 321 316 319 323 319 315 317 319 319 320 320 319 319 320 323 322 320 325 329 326 328 327 321 323 324 322 326 327 324 326 325 324 330 333 329 329 328 324 321 317 308 300 299 298 296 296 298 299 300 301 302 302 302 302 301 300 300 299 299 299 298 298 299 300 301 301 302 303 304 302 300 301 301 300 299 298 295 293 291 291 291 290 290
321 325 325 323 320 320 318 313 309 313 317 316 319 320 319 319 320 324 325 323 324 323 319 322 325 322 324 326 326 330 329 326 327 323 322 327 329 326 327 325 318 313 310 304 300 299 297 296 296 297 298 299 299 300 301 301 301 301 300 300 299 299 299 299 299 299 300 300 301 301 302 302 300 299 299 299 298 297 296 293 291 290 290 290 290 289
321 323 322 324 325 320 316 312 309 310 314 316 319 321 320 319 319 323 323 322 324 323 321 323 325 323 321 321 323 325 322 321 322 321 324 328 324 321 325 324 317 312 307 301 300 298 295 295 296 296 296 297 298 299 299 299 300 300 300 300 299 299 299 299 299 299 299 299 299 299 299 298 298 298 298 297 297 296 293 291 290 289 289 290 290 289
319 323 322 323 326 323 320 318 316 314 315 319 323 321 318 319 319 321 322 321 324 325 324 324 325 323 319 315 316 317 316 319 322 318 319 326 328 324 322 322 318 311 306 302 300 298 297 296 296 295 296 296 297 298 298 298 299 299 299 299 299 299 299 299 299 298 297 297 297 297 296 296 296 297 297 297 296 294 292 289 288 288 288 288 289 288
319 323 321 321 323 323 322 323 323 320 317 319 324 320 317 318 320 320 321 322 323 324 323 323 323 322 320 317 317 317 315 318 323 319 313 317 323 320 317 320 321 314 308 304 301 298 297 297 295 294 295 296 296 297 297 297 297 298 298 298 299 299 299 298 298 297 296 296 295 295 295 295 295 296 296 296 295 293 290 289 288 288 288 288 288 288
324 324 319 320 322 321 321 321 323 324 320 320 322 320 317 318 319 319 321 322 323 323 322 321 321 321 321 321 321 320 319 320 321 320 319 319 317 316 315 316 316 314 309 303 299 298 296 296 296 294 294 295 296 296 296 296 297 297 297 297 297 298 298 298 298 296 295 295 294 295 295 295 295 296 296 295 294 291 289 288 288 288 288 288 288 288
325 324 320 321 321 319 321 321 321 324 323 322 321 319 318 317 318 319 321 322 322 323 323 321 320 322 320 319 321 321 321 322 321 320 322 319 316 318 319 314 311 312 307 301 298 298 296 296 295 294 294 294 295 295 296 296 296 296 297 297 297 297 298 298 297 296 294 294 293 294 294 294 295 295 295 293 291 290 288 288 288 287 288 288 288 288
324 323 321 322 321 320 320 321 322 324 323 322 321 320 318 317 317 319 320 320 321 323 323 321 321 322 320 318 319 320 318 319 321 321 319 316 315 319 322 320 317 315 310 305 301 297 296 296 295 294 293 294 294 295 295 295 295 295 296 296 296 296 297 298 297 295 293 292 292 292 292 293 294 293 293 291 289 288 288 287 287 287 287 288 288 287
322 321 321 322 322 321 321 321 322 322 321 321 320 319 318 317 317 318 318 319 320 321 321 321 322 322 320 318 319 319 318 318 319 318 317 317 320 324 323 320 320 318 314 309 302 297 296 296 295 294 293 293 294 294 294 294 294 294 294 295 295 295 295 296 295 294 293 292 291 291 292 293 293 292 292 290 289 288 287 287 287 287 287 287 287 287
319 321 323 321 321 322 321 320 321 320 320 321 321 320 319 318 317 318 318 319 319 320 320 320 321 321 319 319 322 323 320 317 317 319 320 321 320 321 319 317 319 321 317 309 302 297 296 296 295 294 293 293 293 294 294 294 294 294 294 294 294 294 294 294 294 293 292 292 291 291 292 292 292 292 291 290 289 288 287 287 287 287 287 287 287 287
317 321 324 322 321 322 321 322 322 320 318 319 320 320 319 318 318 317 317 318 319 320 320 320 321 321 319 321 325 325 321 317 317 319 320 320 319 318 317 316 318 320 317 312 306 300 298 298 297 295 294 293 293 293 294 294 294 293 294 294 294 294 294 294 293 293 292 292 291 292 292 292 292 292 291 290 289 288 287 287 287 287 287 287 287 287
318 319 321 321 322 323 322 322 322 320 320 319 320 320 318 318 318 317 317 318 317 318 320 321 320 319 320 323 324 323 322 319 318 318 318 318 317 316 314 314 315 314 313 315 311 305 302 300 296 294 294 293 293 294 294 294 294 293 294 294 293 293 293 293 293 292 292 292 291 292 292 293 293 293 292 291 290 288 287 287 287 287 287 287 286 286
318 319 319 320 322 323 322 322 321 322 323 324 322 320 319 318 319 318 318 317 317 317 318 319 319 317 319 322 322 323 322 320 318 317 317 317 317 316 314 312 312 312 313 313 311 307 304 299 295 294 294 294 293 294 294 294 294 294 294 294 293 293 293 292 292 292 292 291 291 292 293 293 294 294 292 290 289 288 287 287 287 286 286 286 285 285
316 318 318 319 320 321 321 321 323 324 324 324 326 325 321 318 318 319 318 317 317 317 317 317 318 317 317 320 321 321 320 318 319 319 318 318 318 317 315 314 313 314 314 312 310 309 304 297 294 294 293 294 294 293 293 294 294 293 293 293 292 292 292 292 291 291 292 291 291 291 292 292 292 292 290 289 288 287 287 287 286 286 285 285 285 285
316 317 318 319 319 320 321 323 324 325 322 323 328 327 320 318 319 320 320 319 317 317 317 317 316 316 317 318 318 318 318 317 319 319 317 315 315 315 316 316 314 313 312 311 312 312 304 296 295 295 294 294 293 292 293 293 293 293 293 292 292 292 292 292 292 291 291 291 291 291 291 291 291 290 289 289 288 288 287 286 286 286 285 285 285 285
317 318 317 319 319 320 322 322 322 323 324 323 324 323 319 318 319 320 321 320 318 316 316 316 316 316 316 316 317 319 317 316 317 316 315 314 314 314 314 313 312 312 310 307 306 304 300 296 297 297 295 294 293 292 293 293 293 293 292 292 292 291 291 291 291 291 291 291 291 291 291 291 290 290 289 289 288 288 287 287 286 286 286 285 285 285
316 317 318 319 320 319 321 323 322 323 324 323 321 321 321 320 319 319 321 321 319 318 317 316 316 316 316 316 319 319 316 316 318 317 317 318 315 311 310 310 311 310 305 300 299 298 297 297 297 296 295 293 292 293 293 292 292 292 291 291 291 290 290 290 290 291 291 291 291 291 290 290 290 290 289 289 289 289 288 288 287 287 286 286 286 285
315 315 317 318 319 320 321 322 323 323 323 323 323 323 323 322 320 321 322 321 319 319 319 317 316 317 317 316 317 317 316 317 318 316 319 320 315 310 310 310 309 305 299 297 298 297 296 296 295 294 294 293 292 292 292 292 292 292 291 291 290 290 290 289 290 290 290 291 291 291 291 291 290 290 290 289 289 289 289 288 288 288 287 287 286 286
315 315 316 317 319 320 320 321 322 322 322 325 326 322 317 317 319 324 325 322 320 321 321 319 318 317 317 315 315 315 315 317 317 318 322 321 312 308 309 310 309 305 298 296 297 297 295 295 294 293 292 292 292 292 292 292 292 291 291 290 290 290 289 290 290 291 291 291 291 291 291 291 290 290 290 290 290 289 289 289 288 288 287 286 286 286
315 315 316 317 318 318 319 321 321 320 322 326 324 316 313 315 319 323 324 322 325 329 324 320 321 319 316 316 315 313 314 315 317 319 319 315 311 308 305 302 300 299 297 295 296 296 295 294 293 292 292 293 293 292 292 292 291 290 290 290 289 290 290 291 292 291 291 291 291 291 291 291 291 291 290 290 290 290 289 289 288 288 287 287 286 286
316 316 316 317 319 317 318 320 320 320 324 325 318 311 312 318 321 322 323 324 329 333 326 319 320 320 316 316 315 313 314 316 317 318 315 312 313 311 305 300 298 297 295 294 295 295 294 293 293 293 292 293 293 292 292 292 291 290 290 290 290 291 291 292 291 291 291 291 291 291 291 290 290 290 290 290 290 289 289 289 288 288 287 287 286 286
316 317 317 317 317 317 319 320 320 322 321 317 314 312 314 320 320 320 322 321 318 320 321 317 317 318 316 317 317 314 314 316 316 317 314 309 308 307 303 301 301 298 294 293 293 294 294 292 292 292 292 292 293 292 292 291 290 290 290 290 290 291 291 291 291 291 291 291 291 291 291 291 290 290 290 290 290 289 289 288 287 287 287 286 286 286
315 317 318 317 317 318 319 319 320 322 318 313 315 317 316 316 316 316 319 319 314 314 315 315 317 315 313 317 318 314 312 313 312 311 310 305 303 301 299 298 297 295 292 291 292 293 293 291 290 290 291 291 292 292 292 292 291 289 289 290 291 291 291 291 291 291 290 290 291 290 290 290 290 290 290 290 289 289 288 288 287 287 286 286 286 285
316 316 315 315 317 318 318 317 317 317 312 309 314 317 315 315 314 311 313 316 316 312 310 313 319 317 310 312 315 311 310 310 308 307 308 306 300 298 297 295 294 292 291 290 290 292 292 290 289 288 288 289 291 291 292 292 291 290 290 291 291 291 291 291 290 290 290 290 290 290 290 290 290 289 289 289 289 288 288 287 287 286 286 286 285 284
315 315 312 313 317 318 316 315 314 312 309 309 310 311 309 310 310 308 309 311 312 310 307 309 315 315 309 307 310 310 308 307 306 304 302 301 298 295 295 294 291 289 289 289 289 290 290 289 288 287 287 288 289 290 291 292 293 293 292 291 291 291 291 291 290 290 290 290 290 290 290 289 289 289 289 288 288 288 288 288 288 287 286 285 285 284
313 313 311 313 316 317 317 317 315 313 312 311 309 307 306 306 305 305 307 309 308 306 305 304 305 307 305 305 309 311 306 303 304 302 298 296 296 294 294 294 291 289 288 288 288 288 288 287 286 286 286 286 288 290 290 291 293 294 293 292 291 291 291 290 290 290 290 290 290 289 289 289 289 289 289 288 288 288 288 288 287 287 286 286 285 284
313 311 311 312 313 314 316 317 313 309 309 309 308 307 307 307 306 305 305 306 306 304 303 301 301 303 304 303 304 306 303 299 299 299 296 294 294 293 292 292 291 289 288 287 287 288 288 287 286 286 285 286 287 289 290 291 292 293 293 292 291 290 290 290 290 290 290 290 290 289 289 290 289 289 289 289 288 288 287 287 287 287 287 287 286 286
313 312 311 312 312 312 313 314 310 308 310 312 310 308 306 306 307 307 304 302 304 305 304 302 299 299 301 301 300 301 301 298 296 296 295 293 292 292 291 290 289 287 286 286 287 289 289 288 287 286 286 286 288 289 290 291 292 292 292 292 291 291 291 291 290 291 290 290 290 290 290 289 289 289 289 288 288 288 287 287 288 287 287 287 287 287
312 313 312 313 313 312 313 314 312 310 313 315 314 312 309 306 305 306 304 302 303 306 307 305 301 298 298 298 297 299 300 298 294 294 294 293 292 292 291 289 287 286 285 286 288 289 289 289 288 287 286 286 288 289 290 291 292 292 292 292 292 292 292 291 290 290 290 290 289 289 289 289 288 288 288 288 288 287 287 286 286 286 286 286 286 286
310 313 312 311 312 312 312 313 311 310 312 315 316 316 313 307 304 305 305 305 305 305 307 309 309 307 304 299 296 298 299 297 294 294 294 293 291 290 288 288 287 285 284 285 287 287 286 287 288 287 287 287 288 290 291 291 292 292 292 292 292 292 292 292 291 290 289 289 289 289 289 288 288 288 287 287 287 287 286 286 285 285 285 285 285 285
Wind_Speed
3 4 2 5 7 8 8 7 6 5 6 7 5 4 4 3 4 5 4 5 2 2 6 9 9 10 11 13 14 8 3 5 11 11 11 11 9 9 10 11 11 11 9 8 13 19 23 26 26 25 24 22 20 19 20 20 20 18 18 19 21 21 22 23 23 22 23 24 25 25 25 25 23 24 25 24 21 20 19 19 21 21 19 17 17 17
4 4 7 10 7 5 6 6 6 5 5 5 5 3 2 3 5 7 3 4 1 3 6 6 7 11 11 12 14 9 5 9 13 13 15 14 11 10 12 14 12 8 4 5 11 18 22 25 27 27 26 24 21 20 21 22 22 21 20 20 21 22 23 24 23 23 25 26 25 24 24 25 24 24 24 24 22 20 20 21 21 20 20 19 17 16
3 3 11 8 4 6 5 5 6 5 4 4 3 2 3 3 4 6 3 4 1 3 5 5 7 11 11 11 13 13 12 12 12 13 15 14 11 11 12 12 10 7 6 6 9 15 21 24 26 27 26 25 23 20 21 23 22 22 22 22 22 23 25 25 25 26 26 25 23 22 23 25 24 24 24 24 23 21 22 23 22 20 20 19 17 15
2 6 9 5 8 7 5 5 7 5 2 2 3 3 3 2 1 3 4 4 0 2 3 5 7 10 9 9 13 15 13 11 12 13 14 11 12 15 12 8 8 10 11 10 7 10 17 21 25 26 26 25 23 21 22 24 23 23 24 24 24 25 26 26 26 26 26 24 22 22 24 25 25 24 23 23 23 23 24 24 23 22 21 19 16 16
5 6 2 4 7 7 6 4 6 5 2 4 5 6 4 4 5 5 3 4 2 2 3 4 7 8 6 7 10 8 5 8 11 11 12 13 14 14 9 7 9 11 11 11 9 8 14 22 26 27 25 25 25 25 25 25 25 25 25 25 25 26 27 27 27 27 25 24 24 25 26 24 23 23 23 23 24 24 25 24 24 23 23 19 16 17
7 5 3 6 4 6 7 4 5 7 3 4 5 9 9 7 7 5 3 5 4 3 3 4 5 6 2 4 8 5 4 7 7 6 11 15 12 8 8 10 10 9 9 10 10 10 15 23 26 24 24 26 26 27 27 27 27 26 26 26 25 27 28 28 28 28 27 27 27 28 27 24 23 23 23 24 25 26 26 26 25 24 24 21 17 19
3 1 4 6 5 5 6 3 6 7 5 2 4 7 9 6 5 5 1 1 1 4 3 3 2 7 4 4 8 6 6 10 8 7 12 13 9 6 8 9 8 8 8 7 8 10 14 20 23 23 26 28 27 27 26 27 27 26 27 28 27 27 29 30 30 29 28 29 29 28 28 27 26 25 25 25 26 27 26 26 25 25 25 21 19 20
4 2 4 5 6 6 5 3 6 8 7 3 4 4 6 7 6 5 4 3 3 3 3 2 2 5 8 5 6 5 6 10 11 12 15 11 7 7 8 9 8 8 8 7 8 9 12 19 24 26 27 27 26 26 27 28 29 28 28 29 29 28 28 30 30 29 28 28 29 29 29 28 27 27 27 27 27 27 27 26 26 26 24 21 20 21
3 5 5 7 5 4 5 4 7 10 5 4 2 5 6 6 5 4 5 2 1 3 4 2 3 3 8 5 3 2 4 8 10 14 16 11 7 7 8 8 7 7 7 8 8 9 12 19 25 26 25 26 26 27 28 30 30 30 29 29 30 29 29 30 30 30 29 28 29 29 28 27 26 26 28 29 28 28 27 26 26 26 24 21 21 23
1 5 7 8 5 5 4 2 5 9 4 3 5 6 5 5 4 5 4 3 3 2 5 5 6 3 7 4 2 1 2 7 10 12 12 9 7 8 8 7 6 5 5 6 7 9 14 19 24 24 24 25 26 28 30 30 30 30 30 30 30 30 31 30 30 30 30 29 29 29 28 28 27 27 28 29 28 28 27 27 27 26 25 23 23 23
1 1 2 4 4 5 5 3 0 3 4 6 6 6 6 5 4 3 2 3 2 5 5 6 9 6 6 3 4 3 4 6 8 8 9 7 7 8 7 5 5 4 4 5 5 6 11 17 20 23 24 26 26 27 29 30 30 30 30 30 29 30 32 32 31 31 31 30 30 29 29 29 30 30 31 31 30 29 28 28 28 27 25 24 25 25
2 0 1 2 2 4 6 5 3 3 4 5 4 4 4 3 4 3 4 4 1 5 3 2 4 5 7 6 3 5 6 6 7 8 9 8 8 7 5 4 4 4 4 4 4 5 7 11 16 21 23 25 26 27 29 30 31 31 31 31 29 30 32 32 32 32 32 31 30 30 30 31 32 33 34 34 34 32 32 31 29 27 26 27 27 28
2 4 2 0 1 4 6 5 4 4 1 2 4 5 4 2 3 2 3 1 3 6 3 1 1 4 9 8 7 9 12 10 9 9 10 9 9 8 5 5 3 2 3 4 4 5 6 8 14 20 22 24 26 28 30 31 31 32 32 32 31 30 32 32 32 32 31 31 31 32 32 32 32 33 35 36 36 34 33 32 30 28 29 30 31 32
3 4 1 3 1 3 7 6 3 1 3 5 5 6 4 2 1 2 3 2 4 6 3 1 0 3 5 5 10 16 16 12 8 10 11 10 11 10 6 4 3 3 4 5 5 6 7 9 15 19 22 25 26 28 31 32 32 33 32 33 32 30 31 32 32 32 32 32 32 32 31 32 32 34 36 36 35 33 32 32 31 29 30 33 34 35
5 5 4 7 3 6 10 8 6 6 5 5 4 5 5 5 5 4 4 4 5 4 3 2 1 3 3 3 8 11 10 8 7 9 8 8 10 9 6 5 4 5 6 5 6 7 8 11 16 20 22 25 26 28 30 32 33 33 32 33 33 31 32 33 33 33 33 33 32 31 31 31 33 35 36 35 32 30 30 32 32 31 32 34 36 37
4 6 6 3 1 8 10 4 4 7 3 3 3 4 3 5 5 2 3 5 2 3 3 2 4 5 4 6 8 8 8 8 7 6 5 8 10 6 7 7 6 7 7 6 7 7 8 12 16 19 22 24 26 28 30 32 33 34 33 33 34 33 33 34 34 34 34 34 33 32 32 32 34 36 37 34 31 28 29 31 32 33 35 36 37 38
2 5 5 3 2 4 5 1 3 3 3 2 3 4 4 4 6 3 2 1 3 2 4 2 5 6 4 8 9 7 10 11 8 6 7 10 7 5 8 9 7 7 6 6 7 6 7 11 16 19 22 24 26 28 30 31 33 34 34 34 34 33 33 34 34 34 34 34 34 34 34 34 36 38 35 31 29 28 29 31 33 34 36 38 39 38
4 3 4 2 1 3 1 1 2 3 3 5 3 6 3 2 3 3 1 2 3 3 4 1 5 6 4 6 4 1 6 11 10 10 10 10 7 6 10 11 9 7 5 5 6 5 6 10 15 19 22 24 27 28 30 31 32 33 33 34 34 34 34 35 34 34 34 34 35 35 35 36 37 37 33 29 27 27 29 32 35 36 38 39 39 38
4 2 4 2 2 3 4 2 1 4 2 4 4 4 4 2 2 2 2 2 1 3 4 3 4 5 6 7 3 3 6 9 10 9 8 9 8 8 9 10 9 6 4 5 6 6 7 11 16 19 21 24 26 27 28 29 30 30 31 32 33 33 34 34 33 33 34 35 35 36 36 37 37 35 31 29 27 27 29 33 36 38 39 40 40 38
3 3 3 1 2 1 3 2 5 1 2 3 1 2 2 2 4 3 3 3 3 2 3 3 5 7 9 7 6 9 11 10 8 6 7 9 9 7 7 8 7 5 5 6 6 7 7 10 16 20 22 24 25 26 27 28 28 29 30 31 31 31 32 32 33 33 34 35 35 36 36 36 36 34 31 29 28 28 30 34 37 39 40 41 40 39
2 3 3 2 3 0 3 5 8 9 6 3 3 5 3 1 2 1 1 2 4 3 2 2 6 12 8 5 8 11 11 11 9 8 9 9 7 6 6 6 5 5 6 6 6 7 7 10 15 19 21 23 24 25 26 28 29 29 29 30 31 31 32 32 33 34 35 35 36 36 36 36 35 33 31 29 28 28 31 35 38 40 41 41 40 39
3 3 3 2 1 4 6 4 5 8 8 7 7 8 8 6 4 2 2 1 2 3 3 3 7 14 7 5 7 8 9 10 10 9 10 8 6 6 6 6 6 6 6 6 6 6 6 9 14 18 20 22 23 24 26 28 29 29 29 30 31 32 33 33 34 34 35 35 36 37 37 36 34 32 31 29 29 29 32 36 39 41 41 41 40 39
4 3 3 3 4 5 5 2 1 3 3 3 2 3 5 4 4 5 4 4 2 1 1 4 4 13 5 7 7 7 7 7 6 7 7 7 6 6 6 6 6 6 5 5 5 5 6 10 14 17 20 22 23 25 26 28 28 29 29 30 31 32 33 34 34 34 35 35 36 36 36 36 34 32 30 30 29 30 33 37 40 41 42 41 41 39
3 3 3 3 2 2 2 2 2 2 2 1 1 2 5 6 7 5 4 4 4 3 3 3 5 13 5 3 5 4 3 4 3 5 8 7 5 4 6 7 6 5 5 4 4 4 6 10 13 15 18 21 23 24 26 28 29 30 30 31 32 33 34 34 34 34 34 34 34 35 35 34 33 32 31 30 30 31 34 38 40 41 41 41 40 39
4 4 5 2 1 2 2 1 1 1 1 3 4 4 6 9 7 3 1 2 3 8 10 6 8 13 4 1 3 3 3 5 6 5 6 6 6 5 6 6 5 4 4 4 4 4 6 9 10 13 16 19 22 24 26 27 29 30 31 32 33 33 33 33 33 33 33 34 34 34 34 33 33 32 31 31 31 33 35 38 39 39 39 39 39 38
6 5 7 6 6 8 7 6 5 3 3 2 4 6 8 11 12 7 4 3 5 11 11 7 12 15 3 2 4 4 3 6 8 6 4 7 8 6 5 5 4 4 5 5 5 6 7 7 8 12 16 19 21 24 25 27 28 29 30 31 33 33 33 33 33 33 33 33 34 34 34 34 33 33 32 32 32 34 36 38 39 39 38 37 38 38
2 3 8 12 12 12 13 11 5 8 7 6 10 13 13 14 14 10 5 6 11 12 9 12 20 21 13 8 6 5 6 7 8 6 6 9 9 7 6 6 4 4 5 5 5 6 7 8 9 11 15 19 21 23 26 28 29 30 31 32 32 33 33 34 33 33 33 33 34 35 35 35 34 33 33 32 33 35 37 38 39 38 38 37 37 38
3 3 9 14 16 16 17 16 9 11 11 14 16 17 16 16 15 13 12 16 16 11 11 17 19 18 22 20 13 9 9 8 8 9 9 9 7 6 5 6 5 5 5 5 7 8 9 9 9 10 14 18 21 23 26 27 30 31 32 33 34 34 34 35 34 34 34 33 34 35 36 35 34 33 32 32 33 35 36 38 38 38 38 37 37 38
4 6 9 12 16 17 19 17 12 12 12 14 16 18 19 18 18 18 21 25 21 13 14 19 18 17 22 26 20 13 10 10 11 11 7 4 4 5 6 7 7 6 6 8 10 11 11 10 8 10 14 18 21 23 25 27 29 30 31 33 34 35 36 36 35 35 34 34 34 34 34 34 33 32 32 32 33 34 36 37 38 38 37 37 37 38
4 7 11 14 16 18 21 19 14 14 12 11 12 15 17 19 23 25 27 28 24 17 17 21 24 23 22 24 20 11 11 12 9 5 4 5 7 9 8 8 8 8 9 11 12 12 11 10 9 11 14 18 22 25 26 27 29 31 31 32 34 35 35 35 35 34 34 34 34 33 33 33 32 32 32 32 34 35 35 36 37 38 38 38 38 38
5 7 9 10 10 13 17 19 17 14 13 12 10 10 14 19 25 27 25 21 18 18 22 25 25 24 21 17 11 7 10 10 7 6 7 9 10 10 9 8 9 9 11 12 11 11 10 10 9 10 14 20 24 27 28 29 30 31 32 33 34 35 35 35 35 35 35 35 34 33 33 33 32 32 32 33 34 35 36 36 37 37 38 38 38 38
5 5 3 3 6 10 12 17 19 13 8 9 10 10 17 21 21 20 18 17 19 21 23 22 18 20 17 7 5 7 10 11 10 10 11 11 11 11 11 11 11 11 11 12 11 10 10 11 11 12 16 21 25 28 29 29 29 30 32 33 34 35 35 36 36 35 35 35 34 33 33 33 33 32 33 33 34 35 36 36 36 37 38 38 38 38
5 5 4 5 7 10 13 16 15 10 5 7 11 19 25 22 16 13 15 21 24 20 17 15 16 23 18 5 6 8 10 11 13 13 12 14 14 13 13 13 12 11 12 12 11 11 11 11 13 17 20 23 27 30 32 31 31 33 34 34 34 34 35 35 35 34 34 34 34 34 34 33 33 33 34 34 35 35 35 35 36 37 38 39 39 39
8 9 8 7 5 8 14 13 9 7 10 11 13 20 25 22 19 19 20 25 24 17 15 15 17 24 19 7 7 9 10 13 14 14 15 15 13 13 13 12 11 12 13 11 9 9 10 10 13 18 22 24 28 30 30 31 32 32 32 33 33 34 35 35 34 33 33 32 32 33 34 34 34 34 35 35 34 34 34 35 37 37 38 38 37 37
9 10 8 6 4 5 8 8 7 9 11 9 7 10 15 19 22 23 23 24 21 17 18 20 23 28 22 10 8 10 11 12 11 12 15 14 11 10 10 11 13 13 12 9 8 9 10 11 13 16 20 24 26 26 27 29 29 28 28 30 31 32 33 33 33 32 32 31 31 31 33 34 34 34 34 33 33 33 34 35 36 36 36 36 36 36
9 8 6 5 5 3 4 7 10 8 4 4 6 6 6 7 9 12 16 20 21 21 20 22 28 32 25 15 10 7 6 6 7 11 14 11 8 8 10 13 14 13 12 10 11 12 13 15 18 20 22 23 24 26 27 29 29 28 28 30 31 32 32 33 33 32 32 31 31 31 32 33 33 33 32 32 33 33 34 34 34 34 34 34 34 35
9 8 5 5 6 6 7 9 9 8 7 7 11 10 6 7 9 10 12 18 21 22 21 23 28 28 21 17 12 5 1 3 9 16 14 10 10 11 13 13 10 10 11 12 13 15 16 19 21 21 20 22 24 26 28 29 29 29 29 29 30 31 32 32 33 33 32 32 32 32 32 33 33 32 32 32 32 33 33 33 33 33 33 33 33 34
11 10 8 7 6 7 9 9 8 9 10 13 17 12 6 9 10 9 8 13 17 19 20 21 24 21 16 15 11 6 4 3 14 18 10 12 14 13 11 9 7 8 10 11 12 13 15 17 18 18 20 22 24 26 28 29 30 29 28 29 30 31 31 31 32 31 31 32 32 32 31 31 32 31 32 32 32 33 33 32 32 33 33 33 34 35
14 12 10 9 6 6 9 9 9 9 9 11 15 10 5 9 9 8 4 12 17 18 14 13 15 17 16 16 12 9 6 9 17 16 7 12 14 11 10 10 9 8 10 12 14 14 15 16 17 18 21 23 24 26 27 29 30 29 28 29 30 30 30 30 30 30 31 31 30 30 31 31 31 32 32 32 32 33 32 32 32 32 32 33 33 34
13 10 9 9 9 9 10 9 7 7 7 7 7 5 5 9 13 10 5 11 11 9 8 11 13 17 19 19 13 10 11 15 16 11 6 10 9 9 11 11 10 10 10 11 13 13 15 18 18 20 22 24 25 27 28 30 30 29 28 28 28 28 29 30 30 30 30 30 30 30 31 31 31 32 32 32 32 32 31 31 30 30 31 31 31 31
8 7 8 9 11 12 13 11 7 4 5 6 6 5 7 8 10 8 11 9 5 6 9 14 17 18 19 17 12 11 15 17 10 3 3 7 7 6 7 6 6 9 10 12 13 14 17 19 20 21 22 24 26 27 29 31 30 27 27 27 28 28 30 30 30 29 29 29 29 29 30 30 31 31 31 31 30 29 29 29 28 29 29 29 29 29
5 5 6 8 10 10 11 10 8 6 6 6 6 5 6 6 6 10 8 3 4 7 9 12 15 15 16 14 11 12 13 9 3 3 3 6 6 6 5 5 6 7 9 12 14 16 19 18 17 19 20 22 26 28 31 32 29 27 27 26 27 29 29 28 28 27 28 28 28 28 29 29 30 30 29 29 28 27 27 27 26 27 26 26 26 26
7 5 5 7 7 7 8 9 8 7 6 9 10 4 4 7 7 6 3 2 3 4 6 8 10 10 9 8 9 10 7 3 4 5 5 5 5 5 6 6 7 8 10 12 15 19 21 18 17 19 21 23 26 28 30 31 28 25 25 25 26 27 25 25 25 26 26 27 27 28 28 28 28 28 27 26 26 25 25 24 24 24 23 23 24 24
6 6 5 6 7 7 8 9 7 4 5 11 12 6 9 10 5 3 3 4 4 3 4 6 8 7 7 7 7 8 6 5 5 5 5 5 5 5 6 6 7 8 9 12 16 20 21 19 18 18 20 23 26 27 29 29 26 24 24 24 25 25 24 24 24 25 26 26 26 26 26 26 26 25 25 24 23 23 23 23 22 22 22 22 23 24
7 6 3 4 6 6 6 6 3 1 3 8 7 4 5 6 1 4 4 3 4 4 3 4 6 6 6 6 6 6 6 6 6 6 7 6 6 6 6 6 8 10 11 14 17 20 21 21 21 21 20 21 24 26 27 27 26 25 25 24 24 25 24 24 24 25 25 26 25 25 25 24 23 23 22 22 22 22 22 21 21 21 22 22 23 24
4 3 2 1 3 5 4 3 4 2 3 7 8 4 1 3 3 2 2 2 4 4 4 3 5 5 5 5 6 6 7 7 7 6 6 6 6 6 6 6 7 10 12 15 17 19 20 21 22 22 21 19 21 24 25 25 24 24 25 25 25 24 24 25 25 25 25 24 24 23 23 22 22 21 20 20 19 19 19 20 21 22 22 23 23 24
3 4 3 1 3 4 4 4 5 4 4 6 8 6 4 5 3 2 3 3 4 3 4 4 4 4 5 5 6 7 6 6 8 6 5 6 7 7 7 7 7 9 12 16 19 22 23 22 20 20 20 20 20 22 23 22 21 21 23 24 24 24 24 25 25 25 24 23 23 22 21 21 21 20 20 19 19 19 19 19 20 21 22 23 24 24
4 5 5 3 4 4 5 5 3 3 4 5 6 6 6 7 6 4 4 4 3 2 3 3 2 4 5 4 5 5 5 6 7 7 6 6 6 6 7 7 7 9 12 16 20 23 22 21 21 20 21 21 21 22 22 20 19 19 22 23 23 23 24 24 24 24 23 22 22 21 20 19 19 20 20 20 20 20 21 21 21 22 23 23 23 23
3 4 5 5 5 3 7 9 5 3 6 8 8 8 8 8 7 5 3 2 2 2 2 2 3 3 4 4 3 4 6 6 6 7 7 6 6 6 6 6 8 10 13 16 19 20 21 21 23 23 22 22 23 22 21 19 19 20 22 23 23 23 24 24 23 22 22 21 21 20 20 19 19 20 20 20 21 21 20 20 20 21 21 21 20 20
4 4 5 4 4 4 8 10 6 3 7 9 8 10 11 9 8 7 5 4 5 6 6 5 3 2 2 3 4 5 6 5 5 6 7 6 6 7 7 8 9 11 14 16 17 17 19 21 24 24 24 24 24 23 22 21 21 22 22 22 23 24 25 25 24 22 22 22 21 21 21 20 20 19 19 19 20 20 20 19 19 18 18 18 18 18
5 6 6 6 6 8 10 8 7 6 9 9 7 9 10 8 9 10 9 8 9 9 8 7 5 3 3 2 3 5 6 6 6 6 7 6 5 7 9 10 11 12 14 17 17 17 17 19 22 24 25 24 25 24 23 22 22 22 22 22 23 23 24 25 25 23 23 22 22 21 21 20 20 19 19 18 18 19 19 19 18 18 18 17 17 18
Wind_Direction
79 97 141 212 219 212 199 185 167 149 125 124 131 132 172 197 266 253 252 289 232 179 248 235 239 256 259 266 272 265 191 234 261 262 260 253 243 240 239 240 235 234 240 230 217 216 214 210 206 203 201 200 198 198 199 198 201 202 202 202 198 196 196 193 191 192 190 183 175 171 173 177 178 178 178 178 178 177 177 175 176 174 169 167 168 171
72 126 219 227 213 195 181 156 127 113 96 96 131 162 225 205 251 256 248 307 281 183 265 267 262 262 255 261 270 269 237 243 248 250 257 252 243 239 237 241 237 234 236 201 206 208 207 206 202 200 198 196 193 195 198 200 201 202 204 205 201 198 195 191 192 191 186 180 176 174 178 180 179 179 179 176 174 174 174 172 171 169 166 166 166 171
58 212 239 227 135 93 95 120 119 114 100 87 119 157 250 240 268 282 301 336 348 189 268 297 284 268 256 254 262 260 247 246 243 241 251 254 252 247 238 239 236 228 224 208 202 200 201 201 197 197 196 195 195 193 194 199 201 200 201 204 203 199 194 190 190 188 183 184 188 188 184 182 178 174 174 172 170 173 173 169 168 168 169 170 166 169
142 248 252 200 134 110 75 86 105 102 115 146 150 171 238 246 263 282 298 323 301 186 283 304 288 272 258 250 254 254 250 257 258 250 254 257 251 252 248 235 221 221 223 218 206 196 197 197 196 197 195 194 194 193 194 196 198 197 196 200 201 197 192 190 191 191 188 189 192 188 180 178 175 171 172 171 169 172 173 170 170 170 171 173 167 169
221 249 259 115 141 136 107 108 128 139 240 239 200 196 214 224 218 232 285 317 324 16 6 328 294 275 251 242 250 265 290 276 262 256 261 256 247 252 261 246 221 220 221 214 206 193 191 196 198 198 195 193 193 195 196 193 195 195 194 198 200 196 192 191 192 192 192 190 184 175 168 167 168 166 169 170 168 171 174 174 173 172 172 172 170 174
252 243 117 100 112 120 124 157 176 169 208 281 233 207 214 219 222 240 338 4 350 326 339 11 320 285 263 237 253 286 321 276 261 253 256 257 253 245 251 249 233 225 224 214 206 195 192 197 199 198 195 194 195 197 196 194 195 195 195 198 201 199 195 192 191 191 192 189 181 173 168 164 162 162 169 175 174 174 176 177 176 173 171 171 174 180
239 247 92 117 127 123 134 200 225 177 144 298 253 207 208 198 200 232 251 53 281 260 282 48 11 280 277 219 239 258 264 266 276 275 261 258 258 236 237 247 238 226 224 217 208 194 193 196 194 196 197 195 196 196 194 194 195 194 196 198 199 200 199 195 192 191 191 189 185 184 183 180 177 175 177 180 180 178 179 178 177 174 170 170 178 181
173 122 73 116 119 120 147 219 223 163 132 246 249 157 159 165 186 200 165 182 239 276 311 38 108 275 279 243 244 250 249 271 282 275 268 262 253 243 241 246 239 228 215 208 208 196 194 196 196 198 198 197 196 193 192 193 194 195 196 196 197 200 201 198 196 194 195 196 192 188 187 186 186 185 181 180 181 180 180 179 177 174 168 170 179 180
156 161 173 160 134 151 185 224 191 154 146 248 210 124 135 150 159 136 124 172 323 354 305 292 128 262 274 258 308 318 237 259 266 260 264 267 263 257 253 250 243 234 218 206 205 200 197 198 200 200 197 196 195 192 193 193 194 196 196 195 195 199 202 201 200 198 198 201 197 191 188 186 186 185 180 178 180 179 178 179 177 173 167 169 179 180
131 191 190 156 150 193 198 277 191 163 175 202 134 101 82 79 81 84 103 112 48 320 255 210 167 235 275 232 138 38 215 239 249 251 260 270 274 266 261 262 255 242 224 214 210 203 201 201 201 199 194 193 194 193 195 194 194 194 194 193 193 197 201 201 202 202 199 198 196 194 193 190 186 182 177 176 176 176 176 177 177 173 168 171 179 181
307 253 194 149 163 182 136 69 123 141 141 142 115 77 60 44 42 54 49 80 56 284 261 206 188 202 272 259 174 196 214 220 231 251 269 280 279 267 261 264 258 246 224 214 216 203 199 200 197 194 192 191 191 192 194 195 194 193 192 192 191 196 201 201 201 201 199 198 197 198 198 195 190 183 177 174 174 175 176 178 177 174 172 176 181 181
326 205 223 209 153 126 101 72 33 57 106 115 95 90 82 360 9 27 354 45 125 257 269 264 218 206 244 255 228 245 262 241 220 239 262 269 269 266 268 270 251 240 230 210 208 194 184 187 189 191 192 189 188 189 192 194 194 192 192 192 192 195 200 201 201 199 200 200 200 200 200 198 194 186 181 178 177 177 179 180 178 175 177 182 182 182
265 220 220 265 163 142 117 85 40 12 8 101 104 112 105 339 346 346 315 58 227 254 267 331 307 235 244 249 252 261 265 250 222 228 246 253 259 263 267 271 260 233 225 209 201 195 185 183 186 189 189 188 187 189 191 193 193 193 194 194 193 195 198 200 200 198 199 199 199 199 199 198 194 189 185 183 180 180 181 183 181 180 184 186 184 183
268 294 195 147 257 196 160 155 154 204 201 172 149 142 140 138 161 271 278 267 266 269 283 334 216 246 266 260 237 240 248 248 229 231 240 246 258 263 263 269 282 258 225 215 207 200 197 195 190 189 189 188 189 190 190 192 193 193 194 195 194 194 196 199 199 198 199 198 198 199 199 199 195 190 187 184 181 182 185 189 188 188 192 191 187 184
217 282 206 174 205 190 185 192 166 137 162 186 159 142 156 158 168 209 219 223 260 284 294 304 224 207 222 252 232 231 252 266 245 242 253 261 262 267 276 274 269 253 230 217 215 210 206 199 193 190 191 190 190 189 191 193 195 195 196 196 195 193 195 198 199 198 199 198 198 199 200 200 197 192 188 186 185 189 193 194 192 192 195 194 189 184
196 265 244 228 253 173 184 206 114 109 143 209 126 119 186 186 160 176 202 182 196 313 299 244 227 219 216 263 260 245 261 266 251 258 273 266 263 279 288 268 247 241 231 216 216 217 211 200 196 194 192 193 191 190 192 194 196 196 196 197 196 196 196 198 199 199 200 200 200 200 201 200 197 191 187 187 191 196 200 199 196 195 195 192 187 183
162 280 291 341 345 175 184 217 112 135 184 163 135 179 214 176 127 120 232 83 67 282 272 214 248 287 306 277 262 240 250 257 261 267 254 255 266 286 279 266 249 239 229 221 220 217 209 199 198 198 195 194 193 192 193 196 198 198 197 196 196 197 197 198 199 199 200 201 200 200 201 200 195 190 190 192 196 200 202 201 199 196 193 189 185 183
162 258 304 57 228 261 299 113 64 25 120 127 178 206 180 110 94 108 204 5 41 252 271 248 253 284 294 275 285 149 238 253 256 254 252 262 267 253 257 261 262 252 223 220 221 211 205 200 200 200 199 198 196 195 195 197 200 200 199 198 196 196 197 198 198 199 200 201 201 201 201 199 195 192 194 198 202 204 204 202 198 194 190 187 185 185
148 223 302 55 206 295 10 119 111 358 59 129 190 187 128 143 193 125 163 205 189 238 277 294 283 269 223 231 246 179 213 239 247 248 252 257 243 232 248 257 263 260 226 217 214 206 202 199 201 200 200 201 199 199 198 197 200 201 201 201 198 198 199 199 199 199 200 202 203 202 201 198 196 196 199 202 205 207 206 203 197 192 189 187 186 186
138 204 273 345 237 310 29 175 187 206 33 54 87 147 118 153 176 164 161 174 178 213 278 314 311 269 227 202 191 198 207 212 218 227 235 241 233 218 232 251 260 251 227 221 210 207 205 197 200 200 199 200 200 199 198 197 199 201 202 201 199 200 200 199 199 200 201 203 204 204 202 199 198 200 204 206 208 209 207 203 198 192 190 188 188 188
108 207 240 301 316 181 187 212 191 179 167 149 164 179 195 168 124 175 145 113 135 153 213 279 283 268 244 175 178 199 206 200 195 209 223 231 238 229 224 238 252 242 227 222 212 205 201 196 198 199 200 201 199 199 197 197 199 201 201 201 199 200 200 199 200 201 202 203 204 205 204 202 202 204 206 208 209 210 207 202 198 194 191 190 190 190
163 195 189 177 239 212 222 240 206 193 184 181 190 194 193 173 133 157 239 249 136 152 187 180 265 272 250 162 187 197 197 200 195 208 224 224 223 234 243 243 240 240 233 222 214 205 194 191 192 193 196 197 198 198 197 197 198 199 201 201 200 200 201 201 201 202 203 204 204 205 205 205 205 206 207 209 209 210 207 202 198 195 193 192 192 192
151 123 144 185 216 220 239 278 220 216 183 163 193 197 180 157 143 165 205 225 176 195 211 111 266 274 244 158 191 194 197 212 195 196 224 235 224 213 233 252 249 248 248 228 212 203 193 190 188 188 191 194 196 197 197 197 197 199 200 201 201 202 203 204 205 205 205 206 206 205 205 206 206 207 207 209 210 209 207 203 198 196 195 195 194 193
115 124 184 235 287 322 329 350 28 36 83 131 231 171 167 187 192 180 191 192 157 191 200 119 248 264 257 166 210 215 241 252 219 208 221 239 251 221 222 245 258 257 254 232 212 204 190 186 185 187 189 192 196 196 197 197 197 198 199 201 202 203 205 206 206 206 206 206 206 205 205 205 206 207 208 209 210 209 207 203 199 198 197 196 196 194
170 183 190 204 283 318 316 291 309 337 164 197 221 189 184 195 182 131 96 162 173 212 198 176 244 254 271 2 254 255 273 254 243 240 228 228 240 238 233 237 241 253 253 225 209 206 194 186 186 190 192 193 195 196 197 197 198 198 199 200 202 204 206 206 207 206 206 205 204 203 204 205 205 207 208 209 210 209 206 203 200 199 198 197 196 195
175 184 180 186 219 232 233 230 222 192 161 199 217 190 190 192 180 180 204 182 219 228 199 185 241 248 267 30 241 237 250 248 245 241 239 243 236 230 243 240 220 222 231 221 210 208 206 196 192 194 195 196 197 196 197 197 198 199 199 200 202 203 204 206 207 207 206 205 203 203 204 205 206 207 208 210 209 207 205 203 201 200 199 199 198 197
151 204 194 195 210 220 233 239 196 132 145 201 210 195 195 199 191 190 206 208 221 231 217 215 233 248 262 254 229 229 223 228 241 235 229 245 238 218 227 241 228 211 216 219 214 214 215 208 199 196 196 198 198 198 198 198 198 198 199 200 201 202 203 205 206 206 206 205 203 204 204 205 206 207 208 209 209 207 204 203 202 202 201 201 201 201
116 233 215 213 218 220 234 238 193 151 177 201 203 197 195 197 192 190 208 221 220 223 237 235 231 246 261 255 237 222 219 220 238 240 233 238 240 224 215 221 222 217 216 218 219 218 216 212 203 195 196 198 198 199 200 200 200 199 199 200 200 201 202 204 205 205 205 204 203 204 205 205 207 208 208 209 208 206 204 203 203 203 203 203 203 204
161 224 215 218 228 230 238 239 201 178 199 202 198 199 194 191 192 198 214 223 220 214 236 245 239 234 247 254 246 222 202 210 224 229 224 212 224 227 213 205 209 212 214 219 223 220 215 212 202 194 196 197 197 199 200 200 201 200 199 200 199 200 201 202 203 203 202 203 203 204 204 204 206 207 207 207 206 206 205 204 204 205 205 206 206 206
179 221 215 215 227 230 235 239 217 199 211 215 203 198 193 192 196 204 216 223 223 224 235 246 250 244 242 251 252 222 190 205 212 193 172 190 211 219 215 211 211 210 215 220 222 219 214 209 200 193 195 197 198 199 198 198 199 198 198 199 198 198 200 199 199 200 200 201 202 202 203 203 204 205 206 207 207 207 206 206 206 206 206 208 208 208
191 219 221 215 231 237 238 244 237 218 215 225 220 200 198 203 206 210 217 221 223 231 236 239 249 255 250 246 243 201 182 198 194 178 202 219 222 218 213 214 216 215 219 223 223 219 210 203 199 194 197 202 201 199 199 199 198 197 198 198 197 197 197 198 198 198 199 201 201 201 202 202 203 205 207 208 208 208 208 208 208 208 208 209 210 210
190 225 237 197 232 243 239 245 247 237 228 240 244 225 215 214 214 214 215 217 218 222 231 237 245 255 252 224 174 180 181 191 204 209 220 229 225 218 212 212 215 217 220 224 221 211 200 197 198 199 204 205 202 200 200 197 195 196 198 197 196 196 195 196 197 197 198 200 199 200 201 202 202 204 207 209 210 210 210 209 209 209 210 211 211 212
178 208 223 207 226 241 237 241 249 250 249 247 239 233 229 223 219 219 222 226 224 219 224 228 233 246 247 189 159 199 187 191 209 213 218 227 225 219 214 212 213 216 222 225 218 205 199 199 202 205 206 204 202 203 201 196 194 197 198 197 196 195 194 196 197 197 199 199 198 199 201 202 204 206 208 210 210 210 209 209 210 211 212 212 212 212
190 202 212 211 223 239 238 243 252 243 236 235 228 231 235 231 224 222 226 230 228 221 228 237 243 251 250 204 183 210 198 200 214 214 217 226 226 221 218 216 218 222 227 228 215 204 204 205 208 209 208 206 205 205 201 197 197 198 197 195 194 194 194 195 196 198 199 199 198 199 200 202 205 207 208 208 208 208 208 210 212 213 213 213 212 211
193 204 209 210 223 238 238 243 246 232 232 245 250 239 239 239 233 231 235 239 236 228 232 242 249 253 249 223 202 213 214 222 234 235 233 230 222 215 213 216 221 225 228 223 209 210 213 207 205 206 207 208 206 201 197 196 197 195 193 192 192 193 194 194 195 198 200 200 200 199 199 201 203 204 205 206 206 207 209 211 212 212 213 213 214 215
192 203 208 212 218 221 217 222 233 243 262 294 279 254 235 239 234 233 244 246 239 230 228 232 241 247 246 238 226 220 231 261 280 260 244 233 220 205 206 218 219 216 216 209 203 209 209 203 203 204 204 203 198 194 192 193 192 189 189 190 191 193 194 195 197 199 201 201 201 201 201 202 202 203 203 204 205 207 209 210 211 213 214 215 216 218
201 203 210 217 209 209 227 230 242 275 293 269 252 238 203 196 196 200 231 245 238 229 224 228 239 245 247 244 235 210 134 331 285 261 237 212 214 214 213 220 213 203 211 210 208 215 213 207 207 206 200 193 190 190 190 189 188 186 184 186 189 192 193 195 198 200 200 201 202 203 203 203 202 202 202 203 205 207 209 211 213 214 216 216 217 218
205 204 203 215 206 203 230 240 241 251 251 244 245 238 189 192 197 182 213 247 249 236 224 227 240 246 249 247 228 178 137 239 263 260 223 185 207 214 211 224 216 203 211 206 205 215 212 206 204 197 190 186 186 190 189 186 184 182 180 183 187 189 191 194 198 200 200 201 202 202 202 203 203 203 203 204 207 209 210 212 214 216 217 218 219 221
208 209 209 220 217 202 222 235 233 236 240 241 248 249 188 172 152 121 179 247 253 245 224 213 232 241 243 240 215 171 172 226 252 257 205 177 202 199 191 213 215 205 209 202 200 204 199 193 188 182 181 181 181 185 185 182 181 178 179 183 185 187 191 194 197 199 199 201 202 203 204 205 206 206 207 208 210 211 212 214 215 218 219 220 222 223
208 212 214 221 225 219 225 234 235 239 245 238 242 250 206 159 126 119 218 248 245 232 184 172 205 225 232 232 212 179 198 224 244 255 190 169 186 185 191 207 206 203 203 196 198 197 184 177 172 171 176 179 179 180 181 179 178 177 179 182 183 187 192 196 199 200 201 203 204 204 206 207 207 208 210 211 213 213 214 216 217 218 219 221 222 224
205 209 212 217 226 227 228 238 247 248 240 229 220 203 173 137 125 174 230 236 190 172 167 174 195 214 223 223 205 196 217 225 235 272 135 147 158 179 200 197 179 185 183 176 181 178 168 170 173 173 176 179 177 176 177 177 175 176 179 180 183 190 196 199 200 201 201 202 203 204 206 207 209 211 212 213 214 214 215 217 218 219 220 222 223 224
197 205 211 214 223 226 228 238 247 248 228 193 175 171 156 154 196 223 231 220 165 182 191 193 201 214 222 219 206 210 224 222 171 110 140 155 155 166 175 147 131 146 155 160 167 165 160 164 170 171 174 176 175 175 176 175 173 175 178 180 187 194 197 198 198 198 199 201 202 204 206 208 210 212 212 213 214 214 215 216 218 220 221 222 224 225
185 187 204 206 212 222 231 232 233 247 227 156 135 137 206 207 220 227 208 205 218 211 208 214 220 221 218 219 218 219 218 185 155 167 173 174 160 149 156 155 145 145 146 148 157 162 161 159 161 166 169 172 174 175 175 174 172 173 177 183 190 194 194 194 196 196 197 199 201 203 206 207 209 210 211 212 213 213 214 214 215 218 220 222 224 226
193 191 204 204 201 206 220 225 225 237 200 166 156 180 215 209 192 131 154 207 245 241 209 220 236 230 207 208 217 211 197 186 187 179 169 174 170 150 150 151 144 146 148 147 153 160 159 153 152 157 161 166 171 174 176 175 171 170 177 185 189 189 188 190 192 192 194 197 198 201 203 205 206 207 208 210 210 210 211 211 212 216 219 222 224 225
210 200 197 200 208 216 222 222 222 236 200 201 203 212 227 239 234 109 139 203 249 234 197 215 245 238 211 202 194 190 199 200 190 185 181 178 171 157 154 152 148 149 148 144 149 157 157 151 148 147 150 161 169 171 176 178 173 172 178 184 184 184 184 184 185 187 190 193 195 197 198 199 201 203 205 207 207 207 208 209 211 214 217 219 222 223
229 202 146 155 242 266 264 207 195 220 231 229 236 228 218 294 324 94 135 258 258 223 198 216 239 229 205 191 181 193 211 197 181 190 189 167 159 156 148 142 143 146 144 142 146 152 150 144 142 141 142 152 165 169 174 179 180 178 178 179 180 181 180 179 180 182 185 187 189 191 192 193 194 198 201 204 207 210 212 213 213 214 216 218 220 224
254 199 159 161 250 255 245 208 200 227 233 228 241 245 234 246 254 176 194 254 270 245 229 229 224 201 189 192 193 200 205 183 172 182 179 160 160 159 151 148 150 151 151 150 150 149 144 139 139 141 141 147 160 168 171 177 182 179 174 172 173 174 174 174 175 177 179 182 184 185 187 189 190 193 197 201 205 209 213 216 217 216 217 219 220 222
224 187 160 193 228 228 244 249 251 285 280 249 244 253 248 240 234 210 206 229 252 258 254 252 221 184 185 202 205 192 186 183 180 175 168 165 166 160 157 157 154 150 149 148 147 147 145 142 143 144 143 146 155 163 167 172 175 172 167 166 165 166 169 170 172 173 175 177 180 181 184 187 189 191 195 199 203 207 209 213 216 218 221 223 223 224
149 158 166 198 213 234 264 261 260 317 298 266 238 235 239 236 229 219 203 203 227 235 236 255 249 212 189 192 186 172 179 192 189 171 162 164 163 157 153 149 143 141 141 143 147 150 148 145 144 143 143 147 153 158 160 160 160 162 162 161 160 162 164 166 169 171 171 173 177 179 181 185 189 193 196 198 202 207 210 214 219 222 227 231 233 235
146 179 185 188 191 218 245 237 205 210 262 253 228 225 231 224 215 215 202 185 209 215 197 195 213 221 195 183 164 167 185 194 184 168 163 164 160 153 150 146 140 137 137 140 145 148 147 144 143 141 141 146 152 154 152 151 153 156 158 158 159 162 163 162 164 167 169 172 176 178 181 185 188 192 196 199 202 206 209 215 221 226 231 236 239 241
189 188 185 192 211 233 241 223 182 197 243 250 231 226 228 207 197 214 215 203 209 212 195 186 192 205 225 218 172 171 183 184 179 169 158 156 156 151 151 152 147 141 142 143 140 136 135 137 139 140 142 147 152 152 150 149 150 152 157 160 162 163 163 161 161 165 170 174 176 178 181 184 186 190 195 199 202 206 208 212 219 225 229 233 236 239